Location: Branche des Alpilles
(43.6087°N, 4.6976°E)
Time: 13:03:37
(UTC+00:00)

Helios 1A Rocket - Pass Details

Date: 30 November 2020
Orbit: 564 x 585 km, 98.3° (Epoch: 26 January)

Event Time Altitude Azimuth Distance (km) Brightness Sun altitude
Exits shadow 17:30:45 23° 45° (NE) 1,243 4.1 -14.9°
Drops below altitude 10° 17:33:07 10° 12° (NNE) 1,868 5.3 -15.4°
Sets 17:35:32 0° 359° (N) 2,771 6.3 -15.8°
